[[{"header":{"parameterUnit":"m.s-1","parameterCategory":1,"la1":30.2992,"la2":30.254,"lo1":-89.0895,"lo2":-89.0443,"dy":0.0025,"dx":0.0025,"nx":19,"ny":19,"refTime":"2026-04-14T21:00:00:Z","depth":0,"parameterNumber":2,"parameterNumberName":"U-component_of_WINDS"},"data":[0,0,0,-2.7563,-2.7566,-2.7706,-2.7707,-2.7884,-2.7886,0,0,0,0,0,0,0,0,0,0,0,-2.7521,-2.7522,-2.7563,-2.7566,-2.7706,-2.7707,-2.7884,-2.7886,0,0,0,0,0,0,0,0,0,0,0,-2.752,-2.7521,-2.7523,-2.7567,-2.7706,-2.7707,-2.7884,-2.7779,0,0,0,0,0,0,0,0,0,0,-2.7643,-2.7603,-2.7521,-2.7523,-2.7568,-2.7706,-2.7707,-2.7774,-2.7785,-2.7821,0,-2.7851,0,-2.7871,-2.7898,-2.7898,0,0,0,-2.7567,-2.7593,-2.7632,-2.7523,-2.7569,-2.7705,-2.7643,-2.778,-2.7793,-2.7836,-2.7854,-2.786,-2.7874,-2.7899,-2.79,-2.8098,-2.8099,0,0,-2.756,-2.7545,-2.7623,-2.764,-2.7618,-2.7639,-2.7648,-2.7788,-2.7807,-2.7854,-2.7864,-2.7877,-2.79,-2.7901,-2.8097,-2.8098,0,0,0,-2.7537,-2.754,-2.7575,-2.7633,-2.7658,-2.7643,-2.7653,-2.7801,-2.7813,-2.7866,-2.7879,-2.7901,-2.7903,-2.8096,-2.8097,-2.8126,0,0,0,-2.7532,-2.7527,-2.7572,-2.7564,-2.7655,-2.7731,-2.7662,-2.7803,-2.782,-2.7878,-2.7901,-2.7905,-2.8095,-2.8097,-2.8123,-2.8141,0,0,0,-2.7512,-2.7524,-2.7544,-2.7563,-2.7623,-2.7729,-2.775,-2.7807,-2.7828,-2.7899,-2.7905,-2.8095,-2.8097,-2.812,-2.8137,-2.8188,0,0,0,-2.7486,-2.7568,-2.7544,-2.7641,-2.7622,-2.7746,-2.7749,-2.7842,-2.7907,-2.7902,-2.8095,-2.8097,-2.812,-2.8135,-2.8185,-2.8227,-2.8244,0,0,-2.7581,-2.7579,-2.7637,-2.762,-2.7744,-2.7725,-2.7855,-2.7927,-2.7948,-2.8047,-2.8052,-2.8124,-2.8137,-2.8187,-2.8344,-2.8357,0,0,0,-2.7662,-2.7703,-2.774,-2.78,-2.7857,-2.7907,-2.7962,-2.7989,-2.8074,-2.7996,-2.8157,-2.8166,-2.8196,-2.8216,-2.8228,-2.8254,-2.8107,-2.8106,-2.8106,-2.7776,-2.7797,-2.7894,-2.7932,-2.799,-2.8045,-2.8095,-2.8141,-2.8146,-2.8184,-2.8213,-2.8305,-2.8329,-2.8337,-2.8364,-2.8238,-2.8238,-2.8238,-2.8238,-2.7916,-2.7977,-2.7981,-2.8076,-2.8099,-2.818,-2.8236,-2.8237,-2.8316,-2.8285,-2.8313,-2.8276,-2.8351,-2.8376,-2.8241,-2.824,-2.824,-2.824,-2.824,-2.7991,-2.8024,-2.8055,-2.8144,-2.821,-2.8247,-2.8322,-2.834,-2.8358,-2.8385,-2.8417,-2.8417,-2.8417,-2.8399,-2.84,-2.84,-2.84,-2.8401,-2.8401,-2.8056,-2.8091,-2.8151,-2.8219,-2.8259,-2.8315,-2.8372,-2.8413,-2.8463,-2.847,-2.8471,-2.8471,-2.8354,-2.8324,-2.8406,-2.8405,-2.8404,-2.8404,-2.8403,-2.8188,-2.8161,-2.8254,-2.8295,-2.8376,-2.844,-2.8462,-2.8544,-2.8581,-2.8617,-2.8612,-2.8523,-2.8522,-2.8513,-2.8488,-2.8608,-2.8608,-2.8608,-2.8608,-2.8251,-2.8252,-2.8351,-2.8415,-2.8479,-2.8509,-2.8614,-2.8659,-2.8702,-2.8726,-2.8712,-2.868,-2.867,-2.8675,-2.8663,-2.8639,-2.8795,-2.8795,-2.8795,-2.8332,-2.8341,-2.8426,-2.8466,-2.8531,-2.8586,-2.8685,-2.8758,-2.8801,-2.8803,-2.8745,-2.8737,-2.8686,-2.8669,-2.8668,-2.8648,-2.8606,0,0]},{"header":{"parameterUnit":"m.s-1","parameterCategory":1,"la1":30.2992,"la2":30.254,"lo1":-89.0895,"lo2":-89.0443,"dy":0.0025,"dx":0.0025,"nx":19,"ny":19,"refTime":"2026-04-14T21:00:00:Z","depth":0,"parameterNumber":3,"parameterNumberName":"V-component_of_WINDS"},"data":[0,0,0,3.9814,3.9814,3.9828,3.9828,3.9857,3.9857,0,0,0,0,0,0,0,0,0,0,0,3.9817,3.9818,3.9814,3.9814,3.9828,3.9828,3.9857,3.9857,0,0,0,0,0,0,0,0,0,0,0,3.9817,3.9817,3.9818,3.9814,3.9828,3.9828,3.9856,3.9842,0,0,0,0,0,0,0,0,0,0,3.9827,3.9837,3.9817,3.9818,3.9815,3.9828,3.9828,3.9841,3.9843,3.9856,0,3.9869,0,3.9863,3.986,3.986,0,0,0,3.9809,3.9836,3.9833,3.9818,3.9815,3.9828,3.982,3.9842,3.9844,3.9858,3.9869,3.987,3.9864,3.986,3.986,3.995,3.9951,0,0,3.9808,3.9823,3.9832,3.9835,3.9833,3.982,3.9821,3.9843,3.9856,3.9869,3.987,3.9864,3.986,3.986,3.9949,3.995,0,0,0,3.981,3.9823,3.9819,3.9834,3.9835,3.982,3.9821,3.9855,3.9853,3.987,3.9865,3.986,3.9861,3.9948,3.995,3.9996,0,0,0,3.9809,3.9824,3.9819,3.9829,3.9835,3.9845,3.9833,3.9851,3.9853,3.9865,3.986,3.9861,3.9948,3.9949,3.9993,4.0015,0,0,0,3.9814,3.9824,3.9829,3.983,3.9836,3.9845,3.9843,3.9851,3.985,3.986,3.9861,3.9947,3.9949,3.999,4.001,4.0041,0,0,0,3.9823,3.9871,3.983,3.9881,3.9836,3.9874,3.9843,3.9871,3.9885,3.9861,3.9948,3.9949,3.999,4.0008,4.0039,4.0069,4.0083,0,0,3.9891,3.988,3.9908,3.9872,3.9921,3.9871,3.9926,3.9925,3.9913,3.9938,3.994,3.9994,4.001,4.0041,4.0162,4.0174,0,0,0,3.9935,3.9955,3.9965,3.9979,3.998,3.9981,3.997,3.997,3.9991,3.9929,4.0014,4.0023,4.0041,4.0054,4.0064,4.0077,3.9957,3.9957,3.9957,4.0052,4.0033,4.0079,4.0062,4.0076,4.0064,4.0074,4.0071,4.0049,4.0069,4.0076,4.0152,4.0168,4.0176,4.019,4.0092,4.0092,4.0092,4.0093,4.0149,4.0174,4.0143,4.0176,4.0156,4.0184,4.0175,4.0158,4.018,4.0145,4.016,4.0121,4.0189,4.02,4.0096,4.0095,4.0095,4.0095,4.0094,4.0221,4.023,4.0229,4.0247,4.0263,4.0245,4.0268,4.0249,4.0232,4.0247,4.0251,4.025,4.0245,4.025,4.0251,4.0251,4.0251,4.0251,4.0251,4.0296,4.0294,4.0315,4.0319,4.0326,4.0332,4.0321,4.0326,4.0328,4.0313,4.0313,4.0287,4.02,4.0177,4.0255,4.0255,4.0254,4.0254,4.0253,4.0398,4.0372,4.0405,4.0411,4.0414,4.0431,4.0408,4.0421,4.0423,4.0435,4.0407,4.0346,4.0332,4.0324,4.0305,4.0412,4.0412,4.0412,4.0412,4.0457,4.0449,4.0478,4.0489,4.0498,4.048,4.0517,4.051,4.0498,4.0498,4.048,4.0454,4.0447,4.0437,4.0427,4.0408,4.0539,4.0539,4.054,4.0518,4.0509,4.0544,4.0532,4.0533,4.0535,4.0569,4.0583,4.0564,4.0544,4.0497,4.0492,4.0449,4.0437,4.0414,4.0398,4.0364,0,0]}]]